Temperature
22 20 20 21 22 23 23 23 23 23 24 24 23 23 22 22 22 22 21 21 21 22 22 22 22 21 21 21 21 20 20 20 19 19 19 18 18 18 18 18 18 18 18 18
20 21 21 22 22 23 23 23 23 23 24 24 23 22 22 21 21 22 21 21 22 22 21 21 21 21 21 21 21 21 20 20 19 19 19 18 18 18 18 18 18 18 18 18
21 22 22 23 23 23 23 23 23 24 23 23 23 22 22 22 22 22 22 22 22 22 22 22 21 21 21 21 21 21 20 20 19 19 19 18 18 18 18 18 18 18 18 18
21 22 23 23 23 23 23 23 23 24 23 21 23 22 22 21 21 21 21 22 22 22 22 22 22 22 22 21 21 21 20 20 19 19 18 18 18 18 18 18 18 18 18 18
21 22 23 23 23 23 23 24 23 23 22 21 21 21 21 20 21 20 21 21 22 22 22 22 22 22 22 21 21 20 20 20 19 19 18 18 18 18 18 18 18 18 18 18
22 23 23 23 24 24 24 22 20 18 19 21 22 21 21 19 20 21 21 21 22 22 22 22 22 21 21 21 20 20 20 19 19 19 18 18 18 18 18 18 18 18 18 18
22 23 24 24 24 24 23 20 20 20 19 20 20 21 20 20 20 20 21 21 22 22 22 21 21 21 21 21 20 20 19 19 19 18 18 18 18 18 18 18 18 18 18 18
21 21 23 23 23 23 22 21 20 21 20 20 20 20 20 21 20 21 21 21 21 21 21 21 21 21 21 21 20 20 19 19 19 18 18 18 18 18 18 18 18 18 18 18
19 21 23 24 24 22 21 20 19 18 19 20 20 20 20 21 20 20 20 20 21 21 21 21 21 21 21 20 20 19 19 19 19 18 18 18 17 17 17 18 18 18 17 17
20 21 23 23 23 22 21 18 17 18 19 20 21 21 20 21 20 19 19 19 20 21 21 21 21 20 20 20 19 19 19 18 18 18 18 18 17 17 17 17 17 17 17 17
20 21 22 22 23 22 21 20 17 16 18 19 20 20 20 19 19 19 18 19 20 21 21 21 20 20 20 19 19 19 19 18 18 18 18 17 17 17 17 17 17 17 17 17
19 18 19 21 22 23 22 20 18 20 19 17 19 20 20 19 19 19 19 19 20 21 21 20 20 20 20 19 19 19 18 18 18 17 17 17 17 17 17 17 17 17 17 17
19 18 19 20 21 22 22 20 18 17 16 16 19 21 19 18 18 19 19 19 19 20 20 20 19 19 19 19 19 18 18 18 18 18 17 17 17 17 17 17 17 16 16 16
19 17 18 20 20 21 22 21 18 18 17 17 18 20 19 18 18 18 18 18 19 19 19 19 19 19 19 19 19 18 18 18 18 17 17 17 17 17 17 16 16 16 16 16
18 18 19 19 21 21 22 22 20 20 19 19 20 19 19 18 18 18 18 18 18 18 19 19 19 19 18 18 18 18 18 18 17 17 17 17 17 17 16 16 16 16 16 15
16 18 19 21 21 21 22 22 21 21 20 20 20 19 18 18 18 18 17 18 18 18 18 19 19 18 18 18 18 18 18 17 17 17 17 16 16 16 16 15 15 15 15 15
15 17 17 18 20 22 21 21 21 21 20 20 20 20 17 17 17 17 17 18 18 18 18 18 18 18 18 18 18 18 17 17 16 16 16 16 16 16 15 15 15 15 14 14
15 15 15 17 20 21 20 20 21 21 20 19 19 18 17 17 18 18 19 19 19 18 18 18 18 18 18 18 18 17 17 16 16 16 16 16 15 15 15 15 14 14 14 14
14 15 14 15 18 19 20 20 20 20 20 19 18 17 17 17 17 17 18 19 19 19 19 18 18 18 18 17 17 17 16 16 16 16 15 15 15 15 15 14 14 14 14 14
13 14 14 15 18 19 20 20 20 20 20 18 17 17 16 17 17 17 18 19 18 18 18 18 18 18 17 17 17 16 16 16 15 15 15 15 15 15 14 14 14 13 13 13
15 14 15 15 17 18 18 18 19 20 20 19 18 17 17 17 18 18 18 18 18 18 18 17 17 17 17 16 16 16 15 15 15 15 15 14 14 14 14 13 13 13 13 13
14 14 14 14 17 18 17 17 18 18 18 18 18 18 17 17 17 18 18 17 17 17 17 17 16 16 16 16 16 15 15 15 14 14 14 14 14 13 13 13 13 13 12 12
13 13 13 14 15 15 15 15 17 17 17 18 18 17 17 17 16 16 16 16 16 16 16 16 16 16 15 15 15 15 15 14 14 14 14 13 13 13 12 12 12 12 12 12
13 12 12 13 14 14 15 16 16 17 18 18 18 17 17 17 16 16 15 15 16 16 16 16 15 15 15 14 14 14 14 14 14 13 13 13 12 12 12 11 11 11 11 11
12 12 12 13 13 14 15 15 16 17 17 17 17 17 17 17 16 15 15 15 15 15 15 15 15 15 14 14 14 14 13 13 13 13 12 12 12 11 11 11 11 10 10 10
11 12 12 13 14 13 14 15 16 16 16 17 16 16 16 16 16 15 15 15 15 15 15 14 14 14 14 13 13 13 13 13 12 12 12 11 11 11 11 10 10 10 10 9
Wind_Speed
4 5 3 6 6 5 4 1 3 5 3 1 3 4 4 6 7 8 8 8 8 8 6 7 9 10 10 9 9 10 10 9 7 5 5 4 4 4 4 6 10 11 12 12
5 2 6 5 5 3 2 1 3 4 2 1 0 2 2 5 8 8 9 8 8 6 6 7 8 9 10 10 10 11 11 10 9 7 5 3 3 3 4 4 7 11 12 12
6 5 3 5 4 3 3 4 4 3 4 5 4 5 2 2 2 3 4 5 6 9 8 8 8 8 9 9 10 10 9 9 8 7 4 3 3 2 2 4 5 8 11 12
5 5 3 3 4 6 4 6 6 3 2 2 3 1 5 3 3 5 6 6 7 7 7 7 8 7 8 8 7 7 8 8 7 8 7 7 6 5 6 5 5 5 8 10
6 4 5 5 6 8 6 1 3 2 4 2 3 2 7 2 5 8 8 8 7 7 8 8 7 7 6 6 7 7 7 7 7 8 9 7 5 4 3 3 4 5 5 7
5 4 5 7 4 6 5 7 7 6 5 2 1 2 6 4 7 6 5 6 6 7 7 6 5 5 4 4 5 6 7 6 7 8 8 8 7 5 5 5 5 4 4 4
2 4 4 4 2 2 5 6 5 5 4 4 3 2 8 7 7 7 6 5 5 6 6 6 6 6 5 5 5 6 7 6 6 6 6 7 7 6 7 6 6 5 4 4
5 5 5 6 8 7 6 9 8 5 5 4 2 4 7 6 6 3 3 5 5 6 6 6 5 5 5 5 6 6 7 6 6 6 6 5 5 5 5 5 5 6 5 6
8 6 5 5 6 10 8 5 8 8 4 0 5 6 7 2 3 2 5 6 6 6 6 6 6 5 5 5 5 6 6 5 5 5 5 4 4 4 4 4 4 4 4 4
9 4 4 3 5 4 7 10 7 7 6 2 4 5 5 6 4 2 4 6 6 6 5 5 5 5 4 4 4 4 5 4 3 3 3 3 2 3 3 2 3 3 3 3
7 5 3 2 5 7 6 6 6 6 6 7 3 7 6 8 7 6 5 6 7 7 6 5 5 5 5 4 5 5 4 4 3 3 2 2 1 1 1 1 2 2 2 3
7 6 3 6 4 3 6 9 9 7 4 5 5 8 5 5 5 5 5 5 6 6 6 5 5 6 6 5 4 4 4 4 4 3 3 2 2 2 1 1 0 1 1 1
8 7 2 5 5 1 4 5 6 7 7 6 6 7 3 1 3 4 6 6 6 7 6 6 5 5 5 5 5 4 4 5 5 4 4 3 3 3 2 1 1 1 1 1
7 6 7 9 8 6 5 5 7 7 6 7 8 8 5 5 5 5 6 8 7 7 7 6 5 5 5 4 5 5 5 5 6 5 5 4 4 3 2 2 2 2 2 2
6 5 5 5 4 5 4 6 8 7 9 10 10 9 10 10 10 8 8 9 9 8 7 7 6 5 5 5 4 5 5 5 5 6 5 4 4 4 4 4 4 4 3 3
4 5 4 1 1 4 3 4 7 6 6 6 4 7 6 5 7 7 9 10 10 9 8 7 7 6 5 5 5 6 6 5 6 6 5 5 5 5 5 4 4 5 5 4
2 5 5 3 1 3 3 5 6 5 5 8 9 8 6 7 10 11 11 11 10 10 9 8 7 7 6 5 6 6 6 6 6 6 6 5 5 5 5 5 5 5 5 5
5 5 4 3 4 5 7 3 3 4 4 5 5 5 9 8 7 6 7 10 10 9 9 7 7 6 6 6 7 7 8 7 7 6 6 5 5 6 5 5 5 5 5 5
5 7 5 5 4 3 5 2 3 4 4 4 5 6 7 10 7 2 3 6 8 8 8 7 6 6 7 7 8 9 8 8 7 6 6 5 5 6 6 5 5 4 5 5
5 5 6 5 5 7 7 3 1 3 4 5 7 10 11 10 7 6 6 8 9 9 8 8 8 8 8 6 8 9 8 7 6 6 5 5 5 5 5 5 4 4 5 6
4 4 4 4 4 6 5 3 2 5 7 4 7 10 11 7 5 8 11 10 10 10 10 9 8 7 6 6 8 9 8 6 5 6 6 6 6 5 5 5 5 5 5 7
3 4 4 5 4 6 3 1 6 6 2 3 6 8 8 7 10 11 11 12 12 11 11 10 9 7 6 6 9 9 7 6 6 7 8 7 6 6 5 6 6 6 6 7
3 4 5 6 6 4 3 5 5 2 2 3 5 7 10 10 10 11 10 11 10 11 10 9 9 8 6 5 7 9 6 7 8 8 8 7 8 8 7 7 7 6 6 6
1 1 2 1 4 4 4 4 3 1 2 3 7 10 10 11 11 11 11 10 10 9 10 9 10 9 7 6 6 7 7 7 9 9 8 7 8 8 8 7 6 6 5 5
3 2 2 2 4 4 4 4 3 2 4 7 8 8 10 14 13 11 11 10 10 9 8 9 9 9 8 7 7 7 7 9 10 9 8 8 7 8 9 9 8 7 6 4
4 5 5 6 5 4 4 4 1 3 5 8 9 9 9 11 12 11 10 9 9 9 8 9 9 9 8 7 7 6 6 8 10 8 7 6 6 7 7 8 9 15 12 14
Wind_Direction
78 87 184 199 178 159 145 153 275 264 262 183 228 240 217 177 181 191 195 194 201 203 190 178 179 183 185 184 178 181 191 189 177 174 181 189 203 203 201 208 210 205 200 194
55 250 219 172 160 151 153 298 289 301 352 103 224 304 244 188 196 195 198 202 202 189 177 179 178 179 187 188 185 184 190 187 185 188 183 180 179 196 206 206 207 208 202 195
171 223 164 150 160 175 216 202 224 261 357 33 68 360 329 261 209 198 198 197 192 192 189 185 183 187 184 188 191 192 186 185 183 172 150 135 129 137 182 203 208 209 205 202
213 241 179 179 201 167 247 223 200 198 80 337 52 288 286 279 255 231 216 201 197 191 181 186 188 188 188 190 186 179 175 178 175 168 171 174 184 194 203 200 204 203 204 204
219 206 178 201 211 175 210 151 137 119 132 58 27 137 284 323 254 248 229 209 196 184 178 190 191 189 185 174 176 175 173 175 175 178 184 187 196 200 186 183 190 199 203 204
218 223 201 204 197 175 145 72 56 47 71 60 273 167 272 245 237 253 231 203 189 172 171 179 172 162 159 154 162 168 173 181 180 183 187 191 195 194 188 193 197 201 207 206
261 258 232 183 135 87 106 93 42 15 21 253 281 206 250 259 251 238 225 193 173 156 153 154 155 158 159 158 163 164 171 181 181 183 189 195 199 196 203 204 204 204 209 214
179 264 232 192 177 168 162 139 153 178 206 269 327 238 260 275 285 246 176 145 136 141 144 147 156 156 156 159 156 158 171 180 181 188 194 197 198 200 209 209 205 210 217 221
174 240 276 227 185 142 133 160 152 128 143 80 292 291 302 313 358 69 115 120 131 139 142 144 149 150 148 151 154 158 163 170 179 187 186 185 189 197 207 211 209 217 223 225
154 207 285 297 98 50 137 139 109 121 141 210 293 284 256 267 256 182 143 141 136 134 136 138 141 143 141 142 136 133 142 156 160 159 164 170 179 198 204 203 211 225 234 235
142 160 304 19 163 165 114 104 106 110 141 150 214 266 230 223 220 199 182 159 148 146 145 144 147 139 127 115 117 124 128 119 111 120 129 125 136 165 180 203 226 227 228 216
148 132 226 263 265 175 155 160 146 147 185 165 168 258 274 222 209 183 168 150 144 141 137 140 135 128 125 123 124 123 119 114 111 108 103 107 98 83 80 71 269 210 201 206
141 128 116 338 340 108 151 156 145 123 120 149 166 256 312 138 159 165 151 141 139 131 126 124 123 124 126 130 126 119 114 113 107 101 96 87 79 79 71 37 28 61 73 64
130 125 162 189 208 187 168 158 146 128 146 183 210 234 258 214 192 177 159 151 146 140 138 134 131 125 126 129 131 131 120 112 106 100 94 83 73 66 59 54 54 55 58 57
118 152 186 212 203 167 178 174 166 171 177 179 219 218 232 208 193 181 165 155 152 148 144 143 137 133 131 128 124 116 108 102 101 99 91 83 76 70 63 57 54 52 51 50
82 145 152 213 189 176 180 188 175 183 173 190 200 238 237 176 157 163 164 162 163 160 156 148 139 137 133 132 125 113 106 99 96 96 92 85 81 76 68 59 54 53 49 49
96 120 122 199 243 111 219 210 185 187 187 172 197 223 165 162 175 178 173 169 167 164 156 149 146 143 137 132 124 122 112 102 97 93 88 84 84 79 70 67 61 55 52 53
137 116 126 140 122 190 239 259 194 176 205 207 214 197 178 176 159 154 163 166 162 157 153 147 141 130 123 119 112 107 103 102 100 93 85 80 79 76 67 62 56 50 54 59
153 135 121 125 153 241 288 243 166 166 236 217 191 163 143 125 100 101 163 155 154 150 143 136 128 122 122 120 119 111 104 102 98 92 85 81 84 82 75 66 56 51 60 60
70 99 117 128 143 204 231 249 205 124 269 229 179 161 150 136 155 200 160 132 126 121 119 119 114 110 112 116 118 113 109 105 99 93 87 83 86 89 83 75 66 61 65 64
65 71 118 145 173 240 249 282 115 164 239 211 172 164 161 171 178 146 133 125 123 119 116 112 108 107 111 116 116 112 108 103 100 94 86 81 81 84 82 76 72 73 75 72
156 139 156 142 160 231 297 63 178 217 256 169 168 160 144 123 119 127 130 129 126 121 117 114 111 103 100 110 116 114 110 106 101 96 88 80 74 79 79 77 72 72 79 80
176 182 179 184 205 250 276 252 269 241 203 187 160 142 132 129 132 132 130 126 123 122 118 116 114 106 96 98 117 120 116 112 106 97 89 85 80 72 70 75 74 69 69 80
277 135 144 257 278 289 300 301 310 282 198 167 145 141 138 136 136 132 131 128 123 119 119 118 115 112 104 98 101 110 114 112 106 98 91 89 89 79 68 65 65 71 68 80
227 165 155 252 279 315 320 329 336 51 95 115 116 124 135 134 137 137 135 132 127 120 116 116 119 119 117 112 105 105 111 113 106 101 99 95 91 92 81 70 58 63 53 76
211 186 181 220 225 202 263 305 335 109 115 126 120 113 120 131 133 129 127 124 122 120 119 116 114 117 119 115 109 104 109 115 113 107 103 102 100 95 94 92 76 57 64 66
Height
1493 1500 1507 1505 1504 1505 1507 1511 1514 1508 1499 1501 1503 1503 1501 1501 1503 1505 1507 1508 1510 1513 1517 1519 1521 1524 1527 1530 1532 1535 1537 1540 1542 1544 1546 1548 1550 1552 1554 1556 1558 1561 1563 1565
1500 1503 1498 1498 1500 1503 1506 1511 1512 1506 1499 1501 1505 1505 1501 1501 1501 1503 1505 1507 1509 1512 1515 1517 1519 1522 1524 1527 1530 1532 1535 1538 1540 1542 1544 1546 1548 1550 1552 1554 1556 1558 1561 1563
1499 1498 1494 1497 1501 1504 1506 1509 1508 1508 1503 1502 1506 1511 1505 1502 1502 1503 1505 1506 1508 1509 1512 1515 1517 1519 1521 1524 1527 1530 1532 1535 1537 1540 1542 1544 1546 1548 1550 1551 1553 1555 1558 1560
1496 1492 1493 1497 1500 1501 1509 1499 1501 1504 1512 1519 1513 1527 1511 1505 1503 1501 1501 1503 1505 1507 1510 1512 1515 1517 1519 1521 1524 1528 1530 1533 1535 1537 1539 1541 1542 1544 1546 1549 1551 1553 1555 1558
1494 1490 1492 1496 1495 1496 1499 1495 1499 1504 1511 1521 1519 1526 1519 1507 1506 1500 1498 1499 1501 1504 1507 1510 1513 1515 1518 1520 1523 1525 1528 1530 1532 1534 1536 1538 1540 1542 1544 1546 1548 1550 1552 1554
1489 1487 1487 1488 1487 1490 1493 1500 1507 1516 1522 1533 1523 1527 1523 1511 1502 1497 1495 1496 1498 1502 1505 1508 1511 1514 1516 1518 1520 1522 1525 1527 1529 1531 1534 1536 1538 1540 1541 1543 1545 1547 1549 1551
1491 1487 1483 1483 1488 1490 1495 1514 1534 1535 1543 1539 1524 1524 1521 1501 1495 1493 1493 1494 1497 1500 1503 1507 1509 1512 1514 1516 1518 1520 1522 1525 1527 1529 1531 1533 1535 1537 1538 1540 1542 1544 1545 1547
1500 1501 1484 1481 1485 1493 1497 1507 1532 1542 1545 1538 1525 1525 1510 1496 1492 1490 1492 1494 1496 1500 1503 1506 1509 1511 1513 1515 1517 1519 1521 1523 1525 1527 1529 1531 1532 1534 1535 1537 1538 1540 1542 1544
1499 1498 1480 1477 1477 1484 1499 1505 1507 1528 1534 1537 1531 1519 1503 1494 1493 1492 1492 1494 1496 1499 1502 1505 1507 1510 1512 1514 1516 1518 1520 1522 1523 1525 1527 1528 1529 1531 1532 1534 1535 1537 1538 1540
1485 1493 1482 1477 1478 1483 1487 1499 1515 1528 1542 1543 1530 1523 1516 1499 1496 1494 1494 1495 1496 1499 1502 1505 1507 1510 1512 1514 1516 1518 1519 1521 1522 1524 1525 1526 1527 1529 1530 1531 1532 1533 1535 1536
1478 1490 1487 1482 1483 1488 1494 1501 1511 1524 1527 1540 1540 1527 1497 1495 1493 1493 1493 1494 1496 1499 1501 1504 1507 1509 1511 1514 1515 1517 1518 1519 1521 1523 1524 1525 1526 1527 1528 1529 1530 1531 1531 1532
1476 1490 1497 1489 1479 1477 1482 1492 1503 1517 1525 1529 1532 1522 1489 1489 1489 1491 1493 1495 1497 1499 1502 1504 1506 1509 1511 1513 1515 1517 1518 1519 1521 1522 1523 1524 1525 1525 1526 1527 1528 1528 1529 1529
1475 1489 1502 1499 1492 1483 1484 1489 1494 1504 1520 1530 1530 1515 1489 1488 1489 1491 1493 1495 1497 1499 1502 1504 1507 1509 1511 1513 1515 1517 1518 1519 1521 1522 1523 1524 1525 1525 1525 1525 1526 1526 1526 1526
1466 1484 1494 1501 1495 1484 1484 1487 1492 1500 1516 1522 1516 1503 1492 1490 1490 1491 1493 1494 1496 1499 1501 1504 1506 1508 1511 1513 1516 1517 1518 1519 1520 1522 1523 1524 1524 1524 1524 1524 1524 1524 1524 1524
1466 1480 1481 1481 1477 1477 1478 1481 1487 1490 1496 1504 1499 1497 1488 1485 1486 1488 1491 1493 1496 1498 1500 1503 1506 1508 1511 1513 1516 1517 1518 1520 1521 1521 1523 1523 1523 1524 1524 1524 1523 1523 1523 1522
1469 1477 1479 1479 1476 1477 1478 1478 1481 1483 1486 1489 1488 1489 1479 1480 1484 1487 1490 1492 1495 1498 1500 1503 1506 1508 1511 1513 1515 1517 1518 1520 1521 1522 1523 1523 1524 1524 1524 1523 1523 1522 1522 1521
1474 1478 1485 1489 1480 1478 1487 1478 1478 1478 1479 1482 1486 1481 1478 1480 1482 1484 1488 1490 1493 1497 1500 1503 1506 1508 1511 1513 1515 1517 1519 1520 1522 1522 1523 1524 1525 1524 1524 1524 1523 1523 1522 1522
1473 1479 1488 1491 1486 1496 1484 1471 1471 1473 1474 1474 1473 1473 1474 1475 1479 1483 1486 1489 1493 1496 1500 1503 1506 1508 1511 1513 1516 1518 1519 1521 1522 1523 1524 1524 1525 1525 1525 1524 1524 1523 1522 1522
1467 1475 1488 1495 1495 1489 1477 1470 1470 1473 1474 1470 1471 1472 1474 1477 1481 1485 1486 1489 1492 1495 1499 1503 1506 1508 1511 1513 1515 1517 1519 1520 1522 1523 1523 1524 1525 1525 1525 1525 1525 1524 1523 1523
1469 1472 1484 1492 1493 1495 1478 1467 1466 1470 1475 1467 1468 1469 1473 1476 1483 1483 1484 1488 1492 1496 1500 1503 1506 1508 1511 1513 1515 1517 1519 1520 1521 1522 1523 1524 1524 1525 1525 1525 1525 1525 1525 1524
1476 1479 1484 1488 1488 1483 1469 1465 1467 1480 1476 1464 1465 1467 1470 1472 1475 1478 1482 1487 1491 1495 1499 1503 1506 1508 1511 1513 1515 1517 1519 1520 1521 1523 1523 1524 1525 1525 1526 1526 1526 1526 1526 1526
1477 1481 1485 1488 1488 1484 1466 1465 1468 1468 1462 1462 1463 1466 1469 1471 1475 1478 1482 1486 1490 1494 1498 1502 1506 1508 1511 1513 1515 1517 1519 1520 1522 1522 1523 1524 1525 1526 1526 1527 1527 1527 1528 1527
1475 1476 1477 1478 1478 1469 1466 1465 1463 1462 1462 1462 1463 1466 1469 1472 1475 1479 1483 1486 1490 1494 1497 1502 1505 1508 1511 1514 1516 1517 1519 1520 1522 1522 1523 1525 1526 1526 1527 1528 1528 1529 1529 1529
1472 1471 1473 1473 1469 1466 1464 1463 1461 1461 1461 1462 1464 1466 1469 1472 1476 1480 1484 1487 1491 1494 1497 1501 1505 1508 1511 1513 1515 1517 1519 1520 1522 1523 1524 1525 1526 1527 1528 1529 1530 1530 1530 1531
1470 1470 1472 1471 1467 1465 1463 1462 1462 1461 1461 1462 1465 1467 1470 1473 1476 1480 1484 1488 1491 1495 1498 1501 1505 1508 1511 1513 1516 1517 1519 1520 1522 1523 1524 1526 1527 1528 1529 1530 1531 1532 1532 1533
1467 1468 1470 1469 1464 1465 1464 1463 1462 1462 1462 1463 1465 1468 1471 1474 1477 1481 1485 1488 1492 1495 1499 1502 1505 1509 1511 1513 1515 1517 1519 1521 1523 1524 1525 1527 1528 1530 1531 1532 1533 1534 1535 1535